Location: Alma
(38.7220°N, 88.9090°W)
Time: 05:01:36
(UTC-06:00)

Vanguard 2 - Pass Details

Date: 13 November 2019
Orbit: 553 x 2938 km, 32.9° (Epoch: 14 December)

Event Time Altitude Azimuth Distance (km) Brightness Sun altitude
Rises 11:00:10 0° 247° (WSW) 3,901 11.3 32.5°
Reaches altitude 10° 11:03:33 10° 240° (WSW) 2,602 10.6 32.6°
Maximum altitude 11:08:50 37° 174° (S) 1,070 11.5 32.8°
Drops below altitude 10° 11:12:46 10° 106° (ESE) 1,914 10.0 32.9°
Sets 11:14:54 0° 97° (E) 2,740 10.5 33.0°
